Regional Weather Roundup
Issued by NWS

Home | Current Version | Previous Version | Graphics & Text | Print | Product List | Glossary On
Versions: 1 2 3 4 5 6 7 8 9 10 11 12 13 14 15 16 17 18 19 20 21 22 23 24 25 26 27 28 29 30 31 32 33 34 35 36 37 38 39 40 41 42 43 44 45 46 47 48 49 50
000
ASUS45 KCYS 292310
RWRWY

WYOMING REGIONAL WEATHER ROUNDUP
NATIONAL WEATHER SERVICE CHEYENNE WY
500 PM MDT WED JUL 29 2015

NOTE:  "FAIR" INDICATES FEW OR NO CLOUDS BELOW 12,000 FEET
WITH NO SIGNIFICANT WEATHER AND/OR OBSTRUCTIONS TO VISIBILITY.

WYZ001-300000-
YELLOWSTONE NATIONAL PARK

CITY           SKY/WX    TMP DP  RH WIND       PRES   REMARKS
LK YELLOWSTONE   N/A     67  29  24 W10       30.46F
W YELLOWSTONE  NOT AVBL

$$
WYZ002>013-054>058-071-098>099-300000-
NORTHERN WYOMING

CITY           SKY/WX    TMP DP  RH WIND       PRES   REMARKS
JACKSON        FAIR      73  34  23 CALM      30.37F
CODY           FAIR      79  32  18 NE6       30.24F
GREYBULL       FAIR      83  27  13 SE9       30.19F
WORLAND        FAIR      83  24  11 N7        30.21F
SHERIDAN       FAIR      83  36  18 NW7       30.21F
BUFFALO        FAIR      80  32  17 VRB5      30.25F
GILLETTE       FAIR      81  32  17 MISG      30.23F
HULETT         FAIR      77  34  20 W6        30.24F
NEWCASTLE      FAIR      79  30  17 SW7       30.24F

$$
WYZ014>020-022>026-101>103-300000-
CENTRAL WYOMING

CITY           SKY/WX    TMP DP  RH WIND       PRES   REMARKS
BIG PINEY      FAIR      76  25  15 S7        30.39F
PINEDALE       FAIR      72  23  16 NE3       30.40F
DUBOIS         FAIR      73  16  11 N14G25    30.37S
LANDER         FAIR      82  31  15 N9        30.25F
RIVERTON       FAIR      80  25  13 MISG      30.27F
CASPER         FAIR      82  20  10 SW6       30.26F
DOUGLAS        FAIR      83  34  17 VRB5      30.25F

$$
WYZ021-027>030-104>119-300000-
SOUTHERN WYOMING

CITY           SKY/WX    TMP DP  RH WIND       PRES   REMARKS
EVANSTON       FAIR      79  16   9 W10       30.40S
KEMMERER       FAIR      77  14   9 W10G17    30.41F
FORT BRIDGER   CLEAR     81   9   6 W7        30.41S
ROCK SPRINGS   FAIR      78  13   8 W12G21    30.37F
DIXON          FAIR      83  15   8 W7        30.37S
RAWLINS        FAIR      79  11   7 W10G23    30.36F
SARATOGA       FAIR      81  18   9 NW10G21   30.37S
LARAMIE        FAIR      78  26  14 N7        30.37F
CHEYENNE       FAIR      77  47  34 SE13G22   30.30F
TORRINGTON     FAIR      85  43  22 VRB3      30.19F
PINE BLUFFS    FAIR      81  45  28 SE13G20   30.27F

$$



USA.gov is the U.S. government's official web portal to all federal, state and local government web resources and services.